Hourly Weather Ali Sabieh

Today, 29 November, Sunday

Time Temperature Precipitation Wind Pressure Humidity
00:00 +21°C° 0 mm 6 mps 698 mmHg 83%
01:00 +21°C° 0 mm 6 mps 697 mmHg 83%
02:00 +21°C° 0 mm 6 mps 697 mmHg 84%
03:00 +20°C° 0 mm 5 mps 697 mmHg 85%
04:00 +20°C° 0 mm 5 mps 697 mmHg 84%
05:00 +20°C° 0 mm 5 mps 697 mmHg 84%
06:00 +20°C° 0 mm 5 mps 698 mmHg 84%
07:00 +21°C° 0 mm 5 mps 698 mmHg 76%
08:00 +22°C° 0 mm 6 mps 699 mmHg 69%
09:00 +23°C° 0 mm 6 mps 699 mmHg 62%
10:00 +24°C° 0 mm 6 mps 699 mmHg 54%
11:00 +27°C° 0 mm 6 mps 699 mmHg 46%
12:00 +28°C° 0 mm 6 mps 699 mmHg 39%
13:00 +28°C° 0 mm 6 mps 698 mmHg 37%
14:00 +29°C° 0 mm 6 mps 697 mmHg 36%
15:00 +29°C° 0 mm 6 mps 697 mmHg 34%
16:00 +28°C° 0 mm 6 mps 697 mmHg 39%
17:00 +27°C° 0 mm 6 mps 697 mmHg 44%
18:00 +26°C° 0 mm 7 mps 697 mmHg 49%
19:00 +24°C° 0 mm 6 mps 697 mmHg 56%
20:00 +23°C° 0 mm 6 mps 697 mmHg 63%
21:00 +23°C° 0 mm 5 mps 698 mmHg 70%
22:00 +22°C° 0 mm 5 mps 698 mmHg 74%
23:00 +22°C° 0 mm 5 mps 697 mmHg 77%

Tomorrow, 30 November, Monday

Time Temperature Precipitation Wind Pressure Humidity
00:00 +21°C° 0 mm 5 mps 697 mmHg 81%
01:00 +21°C° 0 mm 5 mps 697 mmHg 82%
02:00 +21°C° 0 mm 5 mps 697 mmHg 83%
03:00 +21°C° 0 mm 5 mps 696 mmHg 84%
04:00 +21°C° 0 mm 5 mps 697 mmHg 85%
05:00 +20°C° 0 mm 4 mps 697 mmHg 86%
06:00 +20°C° 0 mm 4 mps 697 mmHg 87%
07:00 +21°C° 0 mm 5 mps 698 mmHg 81%
08:00 +22°C° 0 mm 5 mps 699 mmHg 75%
09:00 +23°C° 0 mm 6 mps 699 mmHg 69%
10:00 +24°C° 0 mm 6 mps 699 mmHg 66%
11:00 +26°C° 0 mm 6 mps 699 mmHg 62%
12:00 +27°C° 0 mm 6 mps 698 mmHg 58%
13:00 +27°C° 0 mm 6 mps 698 mmHg 60%
14:00 +27°C° 0 mm 6 mps 697 mmHg 62%
15:00 +27°C° 0 mm 6 mps 696 mmHg 64%
16:00 +26°C° 0 mm 6 mps 696 mmHg 67%
17:00 +26°C° 0 mm 6 mps 697 mmHg 69%
18:00 +24°C° 0 mm 7 mps 697 mmHg 72%
19:00 +23°C° 0 mm 6 mps 697 mmHg 74%
20:00 +23°C° 0 mm 6 mps 698 mmHg 76%
21:00 +22°C° 0 mm 5 mps 698 mmHg 78%
22:00 +22°C° 0 mm 6 mps 698 mmHg 78%
23:00 +22°C° 0 mm 6 mps 697 mmHg 79%

Day after tomorrow, 1 December, Tuesday

Time Temperature Precipitation Wind Pressure Humidity
00:00 +21°C° 0 mm 6 mps 697 mmHg 79%
01:00 +21°C° 0 mm 6 mps 697 mmHg 82%
02:00 +21°C° 0 mm 6 mps 696 mmHg 84%
03:00 +20°C° 0 mm 6 mps 696 mmHg 87%
04:00 +20°C° 0 mm 6 mps 697 mmHg 87%
05:00 +20°C° 0 mm 6 mps 697 mmHg 86%
06:00 +20°C° 0 mm 6 mps 697 mmHg 86%
07:00 +21°C° 0 mm 6 mps 698 mmHg 80%
08:00 +22°C° 0 mm 7 mps 698 mmHg 75%
09:00 +23°C° 0 mm 7 mps 698 mmHg 69%
10:00 +24°C° 0 mm 7 mps 698 mmHg 63%
11:00 +27°C° 0 mm 7 mps 698 mmHg 57%
12:00 +28°C° 0 mm 7 mps 698 mmHg 51%
13:00 +28°C° 0 mm 7 mps 697 mmHg 49%
14:00 +28°C° 0 mm 7 mps 697 mmHg 48%
15:00 +28°C° 0 mm 7 mps 696 mmHg 47%
16:00 +27°C° 0 mm 7 mps 696 mmHg 52%
17:00 +26°C° 0 mm 7 mps 696 mmHg 57%
18:00 +24°C° 0 mm 7 mps 697 mmHg 62%
19:00 +23°C° 0 mm 7 mps 697 mmHg 67%
20:00 +23°C° 0 mm 7 mps 697 mmHg 73%
21:00 +22°C° 0 mm 6 mps 698 mmHg 78%
22:00 +22°C° 0 mm 6 mps 697 mmHg 78%
23:00 +21°C° 0 mm 6 mps 697 mmHg 79%

2 December, Wednesday

Time Temperature Precipitation Wind Pressure Humidity
00:00 +21°C° 0 mm 6 mps 697 mmHg 80%
01:00 +21°C° 0 mm 6 mps 697 mmHg 81%
02:00 +20°C° 0 mm 7 mps 697 mmHg 83%
03:00 +20°C° 0 mm 7 mps 696 mmHg 84%
04:00 +20°C° 0 mm 6 mps 697 mmHg 85%
05:00 +20°C° 0 mm 6 mps 697 mmHg 85%
06:00 +20°C° 0 mm 5 mps 697 mmHg 86%
07:00 +21°C° 0 mm 6 mps 698 mmHg 80%
08:00 +22°C° 0 mm 6 mps 699 mmHg 74%
09:00 +23°C° 0 mm 7 mps 699 mmHg 69%
10:00 +24°C° 0 mm 7 mps 699 mmHg 61%
11:00 +26°C° 0 mm 7 mps 698 mmHg 54%
12:00 +28°C° 0 mm 7 mps 698 mmHg 46%
13:00 +28°C° 0 mm 7 mps 697 mmHg 44%
14:00 +28°C° 0 mm 7 mps 697 mmHg 42%
15:00 +29°C° 0 mm 7 mps 696 mmHg 40%
16:00 +28°C° 0 mm 7 mps 696 mmHg 44%
17:00 +27°C° 0 mm 6 mps 696 mmHg 48%
18:00 +24°C° 0 mm 6 mps 697 mmHg 52%
19:00 +24°C° 0 mm 6 mps 697 mmHg 59%
20:00 +23°C° 0 mm 6 mps 697 mmHg 66%
21:00 +22°C° 0 mm 5 mps 698 mmHg 73%
22:00 +22°C° 0 mm 5 mps 698 mmHg 76%
23:00 +21°C° 0 mm 6 mps 698 mmHg 79%

3 December, Thursday

Time Temperature Precipitation Wind Pressure Humidity
00:00 +21°C° 0 mm 6 mps 697 mmHg 82%
01:00 +21°C° 0 mm 5 mps 697 mmHg 83%
02:00 +21°C° 0 mm 5 mps 697 mmHg 83%
03:00 +21°C° 0 mm 5 mps 697 mmHg 84%
04:00 +21°C° 0 mm 4 mps 697 mmHg 86%
05:00 +21°C° 0 mm 4 mps 698 mmHg 88%
06:00 +20°C° 0 mm 4 mps 698 mmHg 90%
07:00 +22°C° 0 mm 4 mps 698 mmHg 84%
08:00 +23°C° 0 mm 5 mps 699 mmHg 78%
09:00 +25°C° 0 mm 5 mps 700 mmHg 71%
10:00 +26°C° 0 mm 5 mps 699 mmHg 66%
11:00 +27°C° 0 mm 5 mps 699 mmHg 61%
12:00 +27°C° 0 mm 5 mps 699 mmHg 55%
13:00 +28°C° 0 mm 5 mps 698 mmHg 53%
14:00 +28°C° 0 mm 5 mps 698 mmHg 50%
15:00 +29°C° 0 mm 5 mps 697 mmHg 47%
16:00 +28°C° 0 mm 5 mps 697 mmHg 51%
17:00 +27°C° 0 mm 5 mps 698 mmHg 54%
18:00 +26°C° 0 mm 6 mps 698 mmHg 58%
19:00 +25°C° 0 mm 5 mps 698 mmHg 63%
20:00 +25°C° 0 mm 5 mps 698 mmHg 67%
21:00 +23°C° 0 mm 4 mps 698 mmHg 72%
22:00 +22°C° 0 mm 4 mps 698 mmHg 75%
23:00 +22°C° 0 mm 4 mps 698 mmHg 78%

4 December, Friday

Time Temperature Precipitation Wind Pressure Humidity
00:00 +21°C° 0 mm 5 mps 698 mmHg 81%
01:00 +21°C° 0 mm 5 mps 697 mmHg 83%
02:00 +21°C° 0 mm 5 mps 697 mmHg 85%
03:00 +21°C° 0 mm 5 mps 697 mmHg 87%
04:00 +20°C° 0 mm 4 mps 697 mmHg 88%
05:00 +20°C° 0 mm 3 mps 698 mmHg 90%
06:00 +20°C° 0 mm 3 mps 698 mmHg 92%
07:00 +21°C° 0 mm 3 mps 698 mmHg 85%
08:00 +23°C° 0 mm 4 mps 699 mmHg 78%
09:00 +25°C° 0 mm 5 mps 700 mmHg 72%
10:00 +26°C° 0 mm 5 mps 699 mmHg 69%
11:00 +26°C° 0 mm 5 mps 699 mmHg 66%
12:00 +27°C° 0 mm 5 mps 698 mmHg 63%
13:00 +28°C° 0 mm 5 mps 698 mmHg 60%
14:00 +28°C° 0 mm 5 mps 697 mmHg 58%
15:00 +29°C° 0 mm 5 mps 697 mmHg 55%
16:00 +28°C° 0 mm 5 mps 697 mmHg 61%
17:00 +27°C° 0 mm 5 mps 697 mmHg 66%
18:00 +26°C° 0 mm 5 mps 697 mmHg 72%
19:00 +25°C° 0 mm 5 mps 697 mmHg 75%
20:00 +25°C° 0 mm 4 mps 698 mmHg 78%
21:00 +23°C° 0 mm 4 mps 698 mmHg 81%
22:00 +23°C° 0 mm 4 mps 698 mmHg 83%
23:00 +22°C° 0 mm 4 mps 698 mmHg 85%
Show more